This is the latest recevied weather packets stored in our database for station/object APPOWX. If no packets are shown the sender has not sent any weather packets the latest 10 day(s).
| Time | Temp. | Humidity | Pressure | Rain* | Wind** | Luminosity | Snow |
|---|---|---|---|---|---|---|---|
| 1777298369 | 12.78° C | 68% | 1027.1 hPa | 0 mm | - | - | - |
| 1777298309 | 12.78° C | 70% | 1027.3 hPa | 0 mm | - | - | - |
| 1777298249 | 12.78° C | 72% | 1027.3 hPa | 0 mm | - | - | - |
| 1777298189 | 12.78° C | 73% | 1027.3 hPa | 0 mm | - | - | - |
| 1777298129 | 12.78° C | 71% | 1027.2 hPa | 0 mm | - | - | - |
| 1777298069 | 13.33° C | 67% | 1027.1 hPa | 0 mm | - | - | - |
| 1777298009 | 13.33° C | 69% | 1027.2 hPa | 0 mm | - | - | - |
| 1777297949 | 13.33° C | 72% | 1027.2 hPa | 0 mm | - | - | - |
| 1777297888 | 12.78° C | 72% | 1027.2 hPa | 0 mm | - | - | - |
| 1777297829 | 12.78° C | 72% | 1027.3 hPa | 0 mm | - | - | - |
| 1777297769 | 12.22° C | 75% | 1027 hPa | 0 mm | - | - | - |
| 1777297709 | 12.22° C | 73% | 1027.3 hPa | 0 mm | - | - | - |
| 1777297648 | 12.78° C | 72% | 1027.2 hPa | 0 mm | - | - | - |
| 1777297588 | 12.78° C | 73% | 1027.3 hPa | 0 mm | - | - | - |
| 1777297528 | 13.33° C | 74% | 1027.3 hPa | 0 mm | - | - | - |
| 1777297468 | 13.89° C | 74% | 1027.3 hPa | 0 mm | - | - | - |
| 1777297407 | 12.78° C | 75% | 1027.3 hPa | 0 mm | - | - | - |
| 1777297347 | 12.78° C | 76% | 1027.2 hPa | 0 mm | - | - | - |
| 1777297287 | 13.33° C | 73% | 1027.2 hPa | 0 mm | - | - | - |
| 1777297226 | 13.33° C | 73% | 1027.1 hPa | 0 mm | - | - | - |
| 1777297167 | 13.33° C | 73% | 1027.1 hPa | 0 mm | - | - | - |
| 1777297106 | 12.78° C | 75% | 1027.1 hPa | 0 mm | - | - | - |
| 1777297046 | 12.78° C | 75% | 1027 hPa | 0 mm | - | - | - |
| 1777296987 | 12.78° C | 75% | 1027.1 hPa | 0 mm | - | - | - |
| 1777296927 | 12.78° C | 75% | 1027 hPa | 0 mm | - | - | - |
* Rain latest hour (hover to see other rain measurements)
** Current wind speed in m/s (hover to see current wind gust speed)